Zacatecas Airport, Mexico

2:19 AM CDT on September 21, 2017 (GMT -0500)
Gen Leobardo C Ruiz International

Weather History for MMZC - May, 2013

Change the Weather History Date:

Thursday, May 2, 2013

  Actual Average Record
Temperature  
Mean Temperature 60 °F -  
Max Temperature 84 °F 79 °F 89 °F (2003)
Min Temperature 37 °F 48 °F 37 °F (2013)
Degree Days  
Heating Degree Days 4    
Growing Degree Days 10 (Base 50)    
Moisture  
Dew Point 22 °F    
Average Humidity 22    
Maximum Humidity 48    
Minimum Humidity 11    
Precipitation  
Precipitation 0.00 in - - ()
Sea Level Pressure  
Sea Level Pressure 30.20 in    
Wind  
Wind Speed 8 mph ()    
Max Wind Speed 34 mph    
Max Gust Speed 40 mph    
Visibility 8.1 miles    
Events      
Averages and records for this station are not official NWS values.
T = Trace of Precipitation, MM = Missing Value Source: Averaged Metar Reports

Daily Weather History Graph

Daily Weather History Graph

Search for Another Location

Airport or City:

Trip Planner

Search our weather history database for the weather conditions in past years. The results will help you decide how hot, cold, wet, or windy it might be!

Date:

Astronomy

May. 02, 2013 Rise Set
Actual Time 7:16 AM CDT 8:18 PM CDT
Civil Twilight 6:53 AM CDT 8:42 PM CDT
Nautical Twilight 6:25 AM CDT 9:10 PM CDT
Astronomical Twilight 5:56 AM CDT 9:39 PM CDT
Moon 2:15 AM CDT (5/2) 1:58 PM CDT (5/2)
Length of Visible Light 13h 49m
Length of Day
13h 01m
Waning Gibbous, 47% of the Moon is Illuminated
May 2
Waning Gibbous
May 9
New
May 17
First Quarter
May 24
Full
May 31
Last Quarter

Hourly Weather History & Observations

Time (CDT) Temp. Windchill Dew Point Humidity Pressure Visibility Wind Dir Wind Speed Gust Speed Precip Events Conditions
12:43 AM 53.6 °F - 3.2 °F 13% 30.22 in 10.0 mi South 6.9 mph - N/A   Clear
1:40 AM 48.2 °F - 1.4 °F 15% 30.21 in 10.0 mi SSW 6.9 mph - N/A   Clear
2:40 AM 51.8 °F - 3.2 °F 14% 30.19 in 10.0 mi South 11.5 mph - N/A   Clear
3:40 AM 44.6 °F - 3.2 °F 18% 30.19 in 10.0 mi Calm Calm - N/A   Partly Cloudy
4:40 AM 41.0 °F 39.0 °F 1.4 °F 19% 30.19 in 10.0 mi WNW 3.5 mph - N/A   Partly Cloudy
5:40 AM 44.6 °F 39.2 °F 5.0 °F 20% 30.20 in 10.0 mi SSE 10.4 mph - N/A   Partly Cloudy
6:53 AM 37.4 °F - 1.4 °F 22% 30.22 in 10.0 mi Calm Calm - N/A   Partly Cloudy
7:57 AM 44.6 °F 39.7 °F 8.6 °F 23% 30.22 in 10.0 mi SSW 9.2 mph - N/A   Clear
8:43 AM 55.4 °F - 14.0 °F 20% 30.23 in 10.0 mi SSW 9.2 mph - N/A   Clear
9:44 AM 66.2 °F - 39.2 °F 37% 30.24 in 10.0 mi SSW 10.4 mph - N/A   Clear
10:41 AM 73.4 °F - 28.4 °F 19% 30.25 in 10.0 mi SW 4.6 mph - N/A   Clear
11:40 AM 75.2 °F - 23.0 °F 14% 30.25 in 10.0 mi SE 6.9 mph - N/A   Clear
12:41 PM 78.8 °F - 21.2 °F 12% 30.23 in 10.0 mi Calm Calm - N/A   Clear
1:40 PM 78.8 °F - 21.2 °F 12% 30.21 in 10.0 mi WSW 11.5 mph - N/A   Partly Cloudy
2:58 PM 82.4 °F - 23.0 °F 11% 30.17 in 10.0 mi WNW 11.5 mph - N/A   Partly Cloudy
3:51 PM 82.4 °F - 23.0 °F 11% 30.15 in 10.0 mi Calm Calm - N/A   Partly Cloudy
4:50 PM 84.2 °F - 28.4 °F 13% 30.13 in 10.0 mi NNE 6.9 mph - N/A   Partly Cloudy
5:45 PM 84.2 °F - 24.8 °F 11% 30.12 in 10.0 mi South 3.5 mph - N/A   Scattered Clouds
6:44 PM 82.4 °F - 23.0 °F 11% 30.12 in 10.0 mi SSW 6.9 mph - N/A   Scattered Clouds
7:53 PM 78.8 °F - 21.2 °F 12% 30.13 in 10.0 mi Calm Calm - N/A   Scattered Clouds
8:49 PM 73.4 °F - 17.6 °F 12% 30.15 in 10.0 mi North 5.8 mph - N/A   Scattered Clouds
9:23 PM 69.8 °F - 21.2 °F 16% 30.18 in 1.0 mi East 17.3 mph 40.3 mph N/A   Widespread Dust
9:42 PM 66.2 °F - 39.2 °F 37% 30.19 in 2.0 mi ENE 23.0 mph 34.5 mph N/A   Widespread Dust
10:32 PM 66.2 °F - 42.8 °F 43% 30.22 in 1.5 mi East 28.8 mph 40.3 mph N/A   Widespread Dust
10:44 PM 64.4 °F - 42.8 °F 45% 30.23 in 1.0 mi East 34.5 mph - N/A   Widespread Dust
11:15 PM 62.6 °F - 42.8 °F 48% 30.24 in 2.0 mi East 23.0 mph 34.5 mph N/A   Widespread Dust
11:29 PM 62.6 °F - 42.8 °F 48% 30.25 in 4.0 mi East 34.5 mph - N/A   Widespread Dust
11:50 PM 62.6 °F - 42.8 °F 48% 30.26 in 5.0 mi ESE 13.8 mph 34.5 mph N/A   Widespread Dust